TimeCDT,TemperatureF,Dew PointF,Humidity,Sea Level PressureIn,VisibilityMPH,Wind Direction,Wind SpeedMPH,Gust SpeedMPH,PrecipitationIn,Events,Conditions,WindDirDegrees,DateUTC
12:15 AM,55.8,52.3,88,30.04,10.0,South,10.4,-,N/A,,Overcast,170,2013-09-18 05:15:00
12:35 AM,55.9,52.7,89,30.03,10.0,South,9.2,-,N/A,,Overcast,170,2013-09-18 05:35:00
12:55 AM,55.9,52.9,89,30.03,10.0,SSE,8.1,-,N/A,,Overcast,160,2013-09-18 05:55:00
1:15 AM,55.9,53.6,92,30.03,10.0,SSE,6.9,-,N/A,,Overcast,160,2013-09-18 06:15:00
1:35 AM,55.4,53.8,94,30.02,7.0,SSE,6.9,-,N/A,,Overcast,160,2013-09-18 06:35:00
1:55 AM,55.4,54.1,96,30.02,5.0,SSE,8.1,-,N/A,,Overcast,160,2013-09-18 06:55:00
2:15 AM,55.6,54.5,96,30.01,5.0,SSE,9.2,-,N/A,,Overcast,160,2013-09-18 07:15:00
2:35 AM,55.8,54.5,96,30.00,5.0,SSE,9.2,-,N/A,,Overcast,160,2013-09-18 07:35:00
2:55 AM,55.9,54.7,96,29.99,5.0,SSE,10.4,-,N/A,,Overcast,160,2013-09-18 07:55:00
3:15 AM,55.9,54.7,96,29.99,5.0,South,9.2,16.1,N/A,,Overcast,170,2013-09-18 08:15:00
3:35 AM,55.9,54.7,96,29.98,7.0,South,9.2,16.1,N/A,Rain,Rain,170,2013-09-18 08:35:00
3:55 AM,55.9,54.9,96,29.97,7.0,SSE,8.1,-,N/A,Rain-Thunderstorm,Rain,160,2013-09-18 08:55:00
4:15 AM,55.9,55.0,97,29.96,5.0,SSE,8.1,-,N/A,,Light Drizzle,160,2013-09-18 09:15:00
4:35 AM,56.3,55.0,96,29.96,7.0,South,6.9,-,N/A,Thunderstorm,Overcast,170,2013-09-18 09:35:00
4:55 AM,56.3,55.2,96,29.96,7.0,South,6.9,-,N/A,,Overcast,170,2013-09-18 09:55:00
5:15 AM,56.3,55.4,97,29.96,5.0,South,6.9,-,N/A,,Overcast,170,2013-09-18 10:15:00
5:35 AM,56.3,55.4,97,29.95,7.0,South,6.9,-,N/A,,Overcast,180,2013-09-18 10:35:00
5:55 AM,56.5,55.6,97,29.95,7.0,SSE,5.8,-,N/A,Rain,Light Rain,160,2013-09-18 10:55:00
6:15 AM,56.5,55.6,97,29.95,5.0,South,5.8,-,N/A,,Overcast,170,2013-09-18 11:15:00
6:35 AM,56.5,55.8,97,29.94,4.0,SSE,6.9,-,N/A,,Overcast,150,2013-09-18 11:35:00
6:55 AM,56.7,55.9,97,29.94,4.0,South,5.8,-,N/A,,Overcast,170,2013-09-18 11:55:00
7:15 AM,56.7,55.9,97,29.94,3.0,SSE,8.1,-,N/A,,Overcast,160,2013-09-18 12:15:00
7:35 AM,57.2,56.3,97,29.94,3.0,South,6.9,-,N/A,,Overcast,170,2013-09-18 12:35:00
7:55 AM,57.2,56.3,97,29.94,3.0,SSE,6.9,-,N/A,,Overcast,160,2013-09-18 12:55:00
8:15 AM,57.2,56.5,97,29.94,3.0,South,8.1,-,N/A,,Overcast,170,2013-09-18 13:15:00
8:35 AM,57.4,56.7,97,29.94,2.5,South,8.1,-,N/A,,Overcast,170,2013-09-18 13:35:00
8:55 AM,57.4,56.7,97,29.95,2.5,South,6.9,-,N/A,,Overcast,180,2013-09-18 13:55:00
9:15 AM,57.6,56.8,97,29.95,2.5,South,8.1,-,N/A,,Overcast,170,2013-09-18 14:15:00
9:35 AM,57.6,57.2,99,29.96,1.8,SSE,6.9,-,N/A,Thunderstorm,Overcast,160,2013-09-18 14:35:00
9:55 AM,58.1,57.4,97,29.95,1.8,South,6.9,-,N/A,,Overcast,170,2013-09-18 14:55:00
10:15 AM,58.3,57.9,99,29.95,1.5,South,6.9,-,N/A,,Overcast,180,2013-09-18 15:15:00
10:35 AM,58.3,58.1,99,29.94,1.0,SSE,5.8,-,N/A,,Overcast,160,2013-09-18 15:35:00
10:55 AM,59.0,58.5,98,29.92,1.2,SSE,3.5,-,N/A,,Overcast,160,2013-09-18 15:55:00
11:15 AM,59.2,58.8,99,29.91,2.0,SSE,6.9,-,N/A,,Overcast,150,2013-09-18 16:15:00
11:35 AM,59.9,59.0,97,29.89,2.5,SSE,9.2,-,N/A,,Overcast,150,2013-09-18 16:35:00
11:55 AM,59.5,59.0,98,29.91,2.5,SSE,5.8,-,N/A,,Overcast,150,2013-09-18 16:55:00
12:15 PM,59.5,59.0,98,29.91,2.0,SSE,8.1,-,N/A,,Overcast,160,2013-09-18 17:15:00
12:35 PM,59.7,59.0,97,29.90,2.0,SSE,9.2,-,N/A,,Overcast,160,2013-09-18 17:35:00
12:55 PM,60.1,59.4,97,29.90,2.5,SSE,8.1,-,N/A,,Overcast,160,2013-09-18 17:55:00
1:15 PM,60.4,59.5,97,29.90,3.0,SSE,9.2,-,N/A,,Overcast,160,2013-09-18 18:15:00
1:35 PM,60.8,59.5,96,29.89,3.0,SSE,8.1,-,N/A,,Overcast,160,2013-09-18 18:35:00
1:55 PM,60.8,59.9,97,29.88,3.0,SSE,5.8,-,N/A,,Overcast,160,2013-09-18 18:55:00
2:15 PM,61.0,60.1,97,29.88,2.5,SE,5.8,-,N/A,,Overcast,140,2013-09-18 19:15:00
2:35 PM,61.7,60.8,97,29.87,3.0,SSE,6.9,-,N/A,,Overcast,160,2013-09-18 19:35:00
2:55 PM,62.2,61.0,96,29.87,3.0,SSE,8.1,-,N/A,,Overcast,160,2013-09-18 19:55:00
3:15 PM,62.6,61.2,95,29.87,3.0,South,8.1,-,N/A,,Overcast,170,2013-09-18 20:15:00
3:35 PM,62.8,61.7,96,29.87,3.0,South,5.8,-,N/A,,Overcast,180,2013-09-18 20:35:00
3:55 PM,63.1,61.7,95,29.86,4.0,South,8.1,-,N/A,,Overcast,170,2013-09-18 20:55:00
4:15 PM,63.5,62.1,95,29.86,4.0,SSE,8.1,-,N/A,,Overcast,160,2013-09-18 21:15:00
4:35 PM,64.4,62.2,93,29.85,5.0,South,5.8,-,N/A,,Overcast,170,2013-09-18 21:35:00
4:55 PM,65.1,62.6,92,29.85,5.0,South,5.8,-,N/A,,Overcast,180,2013-09-18 21:55:00
5:15 PM,65.5,62.6,90,29.84,7.0,SSE,4.6,-,N/A,,Overcast,160,2013-09-18 22:15:00
5:35 PM,65.5,62.8,91,29.83,7.0,SE,4.6,-,N/A,,Overcast,140,2013-09-18 22:35:00
5:55 PM,65.5,63.1,92,29.82,5.0,Calm,Calm,-,N/A,,Overcast,0,2013-09-18 22:55:00
6:15 PM,65.7,63.3,92,29.82,5.0,Calm,Calm,-,N/A,,Overcast,0,2013-09-18 23:15:00
6:35 PM,65.8,63.5,92,29.82,7.0,Calm,Calm,-,N/A,,Overcast,0,2013-09-18 23:35:00
6:55 PM,65.8,63.5,92,29.82,7.0,Calm,Calm,-,N/A,,Overcast,0,2013-09-18 23:55:00
7:15 PM,65.5,63.5,93,29.83,7.0,Calm,Calm,-,N/A,,Overcast,0,2013-09-19 00:15:00
7:35 PM,65.3,63.5,94,29.84,7.0,Calm,Calm,-,N/A,,Overcast,0,2013-09-19 00:35:00
7:55 PM,65.3,63.5,94,29.84,7.0,ESE,3.5,-,N/A,,Overcast,120,2013-09-19 00:55:00
8:15 PM,64.8,63.5,96,29.84,7.0,ESE,3.5,-,N/A,,Overcast,120,2013-09-19 01:15:00
8:35 PM,64.6,63.5,96,29.84,5.0,SE,3.5,-,N/A,,Overcast,130,2013-09-19 01:35:00
8:55 PM,64.6,63.5,96,29.85,5.0,Calm,Calm,-,N/A,,Overcast,0,2013-09-19 01:55:00
9:15 PM,64.8,63.5,96,29.84,5.0,ESE,3.5,-,N/A,,Overcast,120,2013-09-19 02:15:00
9:35 PM,64.9,63.7,96,29.83,7.0,SE,4.6,-,N/A,,Overcast,130,2013-09-19 02:35:00
9:55 PM,64.9,63.7,96,29.83,7.0,SSE,5.8,-,N/A,,Overcast,150,2013-09-19 02:55:00
10:15 PM,65.8,64.2,94,29.84,7.0,SSE,4.6,-,N/A,,Overcast,150,2013-09-19 03:15:00
10:35 PM,66.2,64.0,93,29.84,10.0,SSE,5.8,-,N/A,,Scattered Clouds,150,2013-09-19 03:35:00
10:55 PM,66.0,64.2,94,29.84,10.0,SSE,4.6,-,N/A,,Clear,160,2013-09-19 03:55:00
11:15 PM,65.1,63.7,95,29.84,10.0,Calm,Calm,-,N/A,,Clear,0,2013-09-19 04:15:00
11:35 PM,64.0,63.1,97,29.83,7.0,Calm,Calm,-,N/A,,Clear,0,2013-09-19 04:35:00
11:55 PM,63.9,63.0,97,29.82,7.0,SE,3.5,-,N/A,,Clear,130,2013-09-19 04:55:00